Back to catalog

STARLINK-5331

AliveCommunicationsVLEO
NORAD 55280·PAYLOAD·🇺🇸 United States

Launched Jan 19, 2023 from Vandenberg Space Force Base

Loading…

Next Passes (next 24 hours)

TLE

FreshSource: CelesTrak SupGP

Epoch: Sep 15, 2026, 02:47 UTC

1 55280C 23010M   26258.11645833  .00445580  00000+0  37253-1 0  2584
2 55280  69.9997 286.9900 0003725 270.3691 185.5382 14.98196044    19

Track STARLINK-5331 in real time with AllMySat

Download on the App Store